Regional Weather Roundup
Issued by NWS

Home | Current Version | Previous Version | Graphics & Text | Print | Product List | Glossary On
Versions: 1 2 3 4 5 6 7 8 9 10 11 12 13 14 15 16 17 18 19 20 21 22 23 24 25 26 27 28 29 30 31 32 33 34 35 36 37 38 39 40 41 42 43 44 45 46 47 48 49 50
000
ASUS45 KTFX 031410
RWRMT
MONTANA REGIONAL WEATHER ROUNDUP
NATIONAL WEATHER SERVICE GREAT FALLS MT
700 AM MST SAT DEC 03 2016

NOTE: "FAIR" INDICATES FEW OR NO CLOUDS BELOW 12000 FEET WITH NO
SIGNIFICANT WEATHER AND/OR OBSTRUCTIONS TO VISIBILITY.

MTZ001>007-043-031500-
WEST OF THE DIVIDE

CITY           SKY/WX    TMP DP  RH WIND       PRES   REMARKS
KALISPELL      CLOUDY    32  30  92 S7        29.97R WCI  26
MISSOULA       CLOUDY    29  28  96 CALM      30.03F
BUTTE          CLOUDY    28  21  75 NE3       29.96S
MULLAN PASS    LGT SNOW  25  24  96 VRB5      29.94R VSB 3/4
ANACONDA         N/A     30  19  64 S16G26    29.97R WCI  19
DEER LODGE       N/A     27  25  93 CALM      29.98S
EUREKA           N/A     36  27  69 SE7       29.95R WCI  30
HAMILTON         N/A     37  25  60 E13       30.01F WCI  29
LIBBY            N/A     30  30 100 NW3       29.99R
PLAINS           N/A     33  28  82 CALM      30.03R
RONAN            N/A     35  28  76 CALM      30.03R
$$

MTZ008-052>055-031500-
SOUTHWEST MONTANA

CITY           SKY/WX    TMP DP  RH WIND       PRES   REMARKS
BOZEMAN        CLOUDY    23  20  88 SE5       29.97F
DILLON         CLOUDY    27  16  63 SW20      30.00F WCI  13
W YELLOWSTONE  LGT SNOW  18  12  79 SW8G21    30.06S WCI   7
ENNIS          CLOUDY    25  16  68 S18G24    30.05F WCI  11
THREE FORKS      N/A     30 -54   2 CALM      29.96S
TWIN BRIDGES     N/A     31  16  54 SE6       30.00R WCI  25
$$

MTZ009-010-012-014-046-048-049-054-031500-
EAST SLOPES AND CENTRAL MONTANA

CITY           SKY/WX    TMP DP  RH WIND       PRES   REMARKS
CUT BANK       CLEAR     31  23  72 W25       29.75R WCI  17
GREAT FALLS    CLEAR     27  20  75 SW15      29.82S WCI  15
MALMSTROM AFB  CLEAR     33  23  68 SW21G29   29.83S WCI  20
HELENA         PTCLDY    27  19  72 E6        29.94R WCI  20
AUGUSTA          N/A     29  21  71 W14G23    29.79R WCI  18
BOWMANS CRNR     N/A     29  21  73 SW21      29.83R WCI  15
CHOTEAU          N/A     34  21  60 W15       29.81R WCI  24
CONRAD           N/A     35  26  70 SW15      29.79F WCI  25
FAIRFIELD        N/A     33  20  57 SW21G30   29.79F WCI  22
POWER            N/A     29  20  68 SW13      29.80F WCI  18
RAYNESFORD       N/A     35  20  54 SW20G28   29.83S WCI  25
ULM              N/A     31  21  67 SW6G17    29.85S WCI  25
$$

MTZ011-013-016-021-045-047-050-051-031500-
NORTH CENTRAL MONTANA

CITY           SKY/WX    TMP DP  RH WIND       PRES   REMARKS
HAVRE          CLOUDY    34  24  67 SW22G29   29.76R WCI  22
LEWISTOWN      PTCLDY    31  20  63 SW14      29.80R WCI  21
N BAR RANCH      N/A     32  18  55 W12G18    29.81R WCI  23
CHINOOK          N/A     37  21  52 SW16G22   29.74S WCI  28
DENTON           N/A     35  22  59 W35G47    29.75R WCI  21
GEYSER           N/A     32  21  63 W21G28    29.78F WCI  20
GRASS RANGE      N/A     31  21  67 W10       29.77R WCI  22
JUDITH GAP     MOCLDY    31  20  62 SW20G26   29.81R WCI  19
ROY              N/A     32  21  62 MISG      29.76S
STANFORD       MOCLDY    34  20  56 W22G29    29.81R WCI  22
WINIFRED         N/A     32  22  65 MISG      29.77R
$$

MTZ017>020-022>027-061-062-031500-
NORTHEAST MONTANA

CITY           SKY/WX    TMP DP  RH WIND       PRES   REMARKS
GLASGOW        CLOUDY    29  27  92 S12       29.75F WCI  19
JORDAN           N/A     28  20  71 W6        29.79S WCI  22
SIDNEY         CLEAR     15  13  91 S9        29.85S WCI   3
WOLF POINT     CLOUDY    29  23  78 W3        29.80F
PLENTYWOOD       N/A     21  19  93 SE6       29.78F WCI  14
POPLAR           N/A     27  21  80 S5        29.80F
SCOBEY           N/A     25  17  71 SE3       29.74F
$$

MTZ028>42-056>058-031500-
SOUTHCENTRAL AND SOUTHEAST MONTANA

CITY           SKY/WX    TMP DP  RH WIND       PRES   REMARKS
BAKER          CLEAR     17  11  77 E6        29.86F WCI   9
BILLINGS       CLOUDY    34  14  43 SW20      29.86S WCI  23
LIVINGSTON     CLOUDY    32  14  47 SW28G41   29.93R WCI  18
MILES CITY     CLOUDY    23  17  78 S8        29.86R WCI  14
BIG TIMBER     PTCLDY    34  14  44 W30G43    29.90R WCI  20
EKALAKA          N/A     20  12  71 SE5       29.84S
FORSYTH          N/A     36  23  60 SW3       29.84F
HARLOWTON        N/A     31  19  59 W31G45    29.81F WCI  16
LAUREL           N/A     31   9  39 SW7       29.87R WCI  24
ROUNDUP          N/A     36  18  48 SW15      29.76S WCI  27
$$

REGIONAL REPORTS...DAKOTAS

CITY           SKY/WX    TMP DP  RH WIND       PRES   REMARKS
WILLISTON      CLOUDY    20  15  81 S5        29.84F
MINOT          CLEAR     24  20  84 S8        29.91F WCI  15
DICKINSON      CLEAR     15  12  88 S10       29.86F WCI   2
BEACH            N/A     14  12  92 S9        29.87F WCI   2
CROSBY           N/A     23  19  86 S14       29.82F WCI  11
TIOGA            N/A     21  21 100 S16       29.84F WCI   7
WATFORD CITY     N/A     23  18  80 SE8       29.85F WCI  14
BISMARCK       LGT SNOW  25  25 100 E7        30.01S FOG     WCI  17
GRAND FORKS    CLOUDY    27  20  75 S12       30.17F WCI  17
FARGO          CLOUDY    27  20  75 S10       30.21F WCI  17
BUFFALO SD       N/A     18  15  88 S8        29.81F WCI   8
RAPID CITY     CLEAR     16  13  88 CALM      29.90F
$$

REGIONAL REPORTS...WYOMING/IDAHO/WASHINGTON

CITY           SKY/WX    TMP DP  RH WIND       PRES   REMARKS
GILLETTE       CLOUDY    24  13  62 W9        29.87R WCI  14
SHERIDAN       CLOUDY    25  19  78 CALM      29.90R
BUFFALO WY     CLOUDY    30  10  43 CALM      29.87R
CODY           CLOUDY    30  11  45 W23G37    29.89F WCI  17
YELLOWSTONE LA   N/A     12   9  87 CALM      30.03S
IDAHO FALLS    CLOUDY    25  18  74 S7        30.19S WCI  17
SALMON         CLOUDY    27  25  93 CALM      30.11S
BOISE          CLOUDY    34  25  69 E5        30.24R
SPOKANE        PTCLDY    33  31  92 W13       30.07R WCI  24
$$

REGIONAL REPORTS...ALBERTA

CITY           SKY/WX    TMP DP  RH WIND       PRES   REMARKS
EDMONTON       CLOUDY    25  21  86 W9        29.68R WCI  15
CALGARY        MOCLDY    23  14  68 E3        29.70R
LETHBRIDGE     CLOUDY    37  23  56 W25G37    29.73R WCI  26
MEDICINE HAT   MOCLDY    36  23  60 W10       29.70R WCI  28
WATERTON GATE    N/A     34  19  55 SW23G36     N/A  WCI  22
CARDSTON         N/A     36  19  51 W16G26      N/A  WCI  26
MILK RIVER       N/A     30  23  74 W16G23      N/A  WCI  19
ONEFOUR          N/A     34  23  64 NW17        N/A  WCI  23
$$

REGIONAL REPORTS...SASKATCHEWAN

CITY           SKY/WX    TMP DP  RH WIND       PRES   REMARKS
SWIFT CURRENT  CLOUDY    32  27  80 W13       29.61R WCI  22
REGINA         FLURRIES  19  18  93 SE13      29.71F WCI   7
SASKATOON      CLOUDY    23  21  93 E6        29.67F WCI  16
VAL MARIE        N/A     30  27  86 S12         N/A  WCI  21
ROCKGLEN         N/A     28  27  93 S12         N/A  WCI  18
ASSINIBOIA       N/A     27  25  93 SW5         N/A
$$



USA.gov is the U.S. government's official web portal to all federal, state and local government web resources and services.